#timestamp,LO_Frequency,Hit,StdDev 
1546718415.9,286047000.3,N
1546718435.7,286047000.3,N
1546718455.5,286047000.9,N
1546718475.4,286047001.9,N
1546718495.2,286047002.8,N
1546718515.0,286047002.7,N
1546718515.9,286047002.7,N
1546718535.8,286047002.1,N
1546718555.6,286047002.6,N
1546718575.4,286047002.6,N
1546718595.3,286047002.3,N
1546718615.1,286047000.5,N
1546718635.9,286047001.0,N
1546718655.7,286047000.5,N
1546718675.5,286047000.2,N
1546718695.4,286047002.3,N
1546718715.2,286047000.4,N
1546718735.0,286047001.6,N
1546718735.9,286047001.6,N
1546718755.8,286047002.5,N
1546718775.6,286047001.5,N
1546718795.5,286046999.7,N
1546718815.3,286047001.0,N
1546718835.1,286047000.0,N
1546718855.9,286047002.8,N
1546718875.7,286047002.2,N
1546718895.5,286047001.4,N
1546718915.4,286047001.4,N
1546718935.2,286046999.7,N
1546718955.0,286047000.0,N
1546718956.0,286047000.0,N
1546718975.8,286046998.5,N
1546718995.6,286046997.2,N
1546719015.5,286046996.6,N
1546719035.3,286046996.7,N
1546719055.1,286046998.6,N
1546719075.9,286047000.3,N
1546719095.7,286047000.9,N
1546719115.5,286046999.9,N
1546719135.4,286047000.4,N
1546719155.2,286046998.1,N
1546719175.1,286047000.9,N
1546719176.0,286047000.9,N
1546719195.8,286047000.5,N
1546719215.6,286047001.7,N
1546719235.5,286047001.3,N
1546719255.3,286047004.4,N
1546719275.1,286047002.6,N
1546719295.9,286047002.8,N
1546719315.7,286047002.6,N
1546719335.6,286047000.5,N
1546719355.4,286046998.5,N
1546719375.2,286046998.5,N
1546719395.1,286047001.1,N
1546719396.0,286047001.1,N
1546719415.8,286047001.2,N
1546719435.6,286047000.9,N
1546719455.5,286047001.1,N
1546719475.3,286046999.9,N
1546719495.2,286047000.3,N
1546719515.9,286047000.1,N
1546719535.7,286047001.0,N
1546719555.6,286046998.4,N
1546719575.4,286046996.8,N
1546719595.2,286046995.4,N
1546719615.1,286046995.4,N
1546719616.0,286046995.4,N
1546719635.8,286046997.5,N
1546719655.7,286046998.9,N
1546719675.5,286046998.9,N
1546719695.3,286046998.2,N
1546719745.2,286046998.6,E
1546719755.1,286046998.7,N
1546719775.8,286047002.4,P
1546719795.7,286047002.2,N
1546719815.5,286047002.8,N
1546719835.4,286047001.0,N
1546719855.2,286046999.7,N
1546719875.0,286047001.6,N
1546719875.9,286047001.6,N
1546719895.8,286047004.2,Y
1546719915.6,286046999.9,P
1546719935.5,286046998.1,N
1546719955.3,286046998.1,N
1546719975.1,286046999.1,N
1546719995.9,286046998.2,N
1546720015.7,286046996.9,N
1546720035.5,286046999.5,N
1546720055.4,286046998.3,N
1546720075.2,286046998.7,N
1546720095.0,286046998.8,N
1546720096.0,286046998.8,N
1546720115.8,286047001.2,N
1546720135.6,286046996.9,N
1546720155.5,286046996.6,N
1546720175.3,286046999.0,N
1546720195.1,286046997.0,N
1546720215.9,286046996.7,N
1546720235.7,286046999.2,N
1546720255.5,286046999.4,N
1546720275.4,286046998.8,N
1546720295.2,286046998.8,N
1546720315.1,286046999.4,N
1546720316.0,286046999.4,N
1546720335.8,286046999.2,N
1546720355.6,286046998.4,N
1546720375.5,286046998.7,N
1546720395.3,286046998.7,N
1546720415.1,286046999.2,N
1546720435.9,286046998.4,N
1546720455.7,286046998.6,N
1546720475.6,286046996.6,Y
1546720495.4,286046999.5,P
1546720515.2,286046998.2,P
1546720535.1,286047002.8,P
1546720536.0,286047002.8,N
1546720555.8,286046999.8,N
1546720575.6,286047003.3,N
1546720595.5,286047005.5,N
1546720615.3,286047003.9,N
1546720635.2,286047003.2,N
1546720655.9,286047001.8,N
1546720705.7,286047001.4,E
1546720715.7,286047003.7,N
1546720735.5,286046999.7,P
1546720755.3,286047001.3,N
1546720775.2,286047001.4,N
1546720795.0,286047002.0,N
1546720795.9,286047002.0,N
1546720815.7,286047001.6,N
1546720835.6,286047001.9,N
1546720855.4,286047000.0,N
1546720875.3,286046998.9,N
1546720895.1,286046999.3,N
1546720896.0,286046999.3,N
1546720915.8,286046998.3,N
1546720935.7,286046998.5,N
1546720955.5,286047000.7,N
1546720975.3,286047002.4,N
1546720995.2,286047001.0,N
1546721015.0,286046999.0,N
1546721015.9,286046999.0,N
1546721035.8,286046998.8,N
1546721055.6,286046998.8,N
1546721075.4,286046998.2,N
1546721095.3,286046998.6,N
1546721115.1,286046999.3,N
1546721135.9,286046999.0,N
1546721155.7,286046997.2,N
1546721175.5,286046995.5,N
1546721195.4,286046995.4,N
1546721215.2,286046997.7,N
1546721235.0,286046997.2,N
1546721235.9,286046997.2,N
1546721255.8,286046999.5,N
1546721275.6,286046997.9,N
1546721295.5,286046997.6,N
1546721315.3,286046995.1,N
1546721335.1,286046995.3,N
1546721355.9,286046995.3,N
1546721375.7,286046997.3,N
1546721395.5,286046997.3,N
1546721415.4,286046997.9,N
1546721435.2,286046999.2,N
1546721455.1,286046999.1,N
1546721456.0,286046999.1,N
1546721475.8,286046996.8,N
1546721495.6,286046996.7,N
1546721515.5,286046996.6,N
1546721535.3,286046998.5,N
1546721555.1,286046998.6,N
1546721575.9,286046999.3,N
1546721595.7,286046996.5,N
1546721615.6,286046998.6,N
1546721635.4,286047000.5,N
1546721655.2,286046998.2,N
1546721675.1,286046999.7,N
1546721676.0,286046999.7,N
1546721695.8,286046998.5,N
1546721715.6,286046998.6,N
1546721735.5,286046996.7,N
1546721755.3,286046996.1,N
1546721775.2,286046996.5,N
1546721795.9,286046998.4,N
1546721815.7,286046998.7,N
1546721835.6,286046998.6,N
1546721855.4,286046998.6,N
1546721875.2,286046998.4,N
1546721895.1,286047001.2,N
1546721896.0,286047001.2,N
1546721915.8,286046999.9,N
1546721935.7,286047000.2,N
1546721955.5,286046998.3,N
1546721975.3,286047002.7,N
1546721995.2,286047002.7,N
